DW6494 Weather Reports


Display with metric or nautical units.
time (UTC)temp
F
wind
direction
speed
MPH
gust
MPH
rain 1hr
in
rain 24hr
in
rain mn
in
humidity
%
barometer
mb
20260508085033 52 85 3.0 4.0 0.00 0.00 0.00 59 1014.0
20260508084532 52 80 0.0 0.0 0.00 0.00 0.00 57 1014.0
20260508084029 51 48 4.0 4.0 0.00 0.00 0.00 59 1014.0
20260508083529 52 53 3.0 4.0 0.00 0.00 0.00 58 1014.0
20260508083031 52 0 0.0 0.0 0.00 0.00 0.00 60 1014.0
20260508082531 52 85 5.0 5.0 0.00 0.00 0.00 60 1014.0
20260508082031 52 92 4.0 4.0 0.00 0.00 0.00 59 1014.0
20260508081531 52 89 6.0 6.0 0.00 0.00 0.00 59 1014.0
20260508081031 52 103 5.0 6.0 0.00 0.00 0.00 59 1014.0
20260508080531 52 59 3.0 4.0 0.00 0.00 0.00 58 1014.0
20260508080029 53 6 3.0 3.0 0.00 0.00 0.00 57 1014.0
20260508075531 53 9 0.0 1.0 0.00 0.00 0.00 58 1014.0
20260508075031 53 75 1.0 3.0 0.00 0.00 0.00 56 1014.0
20260508074531 54 0 0.0 0.0 0.00 0.00 0.00 56 1014.0
20260508074029 54 66 2.0 3.0 0.00 0.00 0.00 55 1014.0
20260508073531 55 73 1.0 3.0 0.00 0.00 0.00 54 1014.0
20260508073032 55 51 2.0 3.0 0.00 0.00 0.00 51 1014.0
20260508072529 54 0 0.0 0.0 0.00 0.00 0.00 51 1014.0
20260508072031 54 15 0.0 0.0 0.00 0.00 0.00 53 1014.0
20260508071531 54 64 0.0 1.0 0.00 0.00 0.00 55 1014.0
20260508071029 54 41 1.0 2.0 0.00 0.00 0.00 52 1014.0
20260508070531 54 78 4.0 4.0 0.00 0.00 0.00 55 1014.0
20260508070031 55 0 0.0 0.0 0.00 0.00 0.00 54 1014.0
20260508065530 55 83 0.0 0.0 0.00 0.00 0.00 53 1014.0
20260508065032 55 84 5.0 8.0 0.00 0.00 0.00 54 1014.0
20260508064532 56 109 0.0 0.0 0.00 0.00 0.00 52 1014.0
20260508064031 56 0 0.0 0.0 0.00 0.00 0.00 51 1014.0
20260508063531 56 0 0.0 0.0 0.00 0.00 0.00 47 1014.0
20260508063031 57 0 0.0 0.0 0.00 0.00 0.00 46 1014.0
20260508062532 57 0 0.0 0.0 0.00 0.00 0.00 46 1014.0
20260508062029 56 9 5.0 6.0 0.00 0.00 0.00 45 1014.0
20260508061530 56 0 4.0 5.0 0.00 0.00 0.00 46 1014.0
20260508061030 55 0 3.0 4.0 0.00 0.00 0.00 49 1014.0
20260508060532 55 0 0.0 0.0 0.00 0.00 0.00 51 1014.0
20260508060031 55 39 0.0 0.0 0.00 0.00 0.00 52 1014.0
20260508055529 55 0 0.0 0.0 0.00 0.00 0.00 51 1014.0
20260508055033 55 0 0.0 0.0 0.00 0.00 0.00 51 1014.0
20260508054533 56 59 3.0 4.0 0.00 0.00 0.00 51 1014.0
20260508054032 56 0 0.0 0.0 0.00 0.00 0.00 50 1014.0
20260508053531 56 0 0.0 0.0 0.00 0.00 0.00 50 1014.0
20260508053032 56 0 0.0 0.0 0.00 0.00 0.00 50 1014.0
20260508052529 57 0 0.0 0.0 0.00 0.00 0.00 50 1014.0
20260508052029 57 0 0.0 0.0 0.00 0.00 0.00 47 1014.0
20260508051529 57 0 0.0 0.0 0.00 0.00 0.00 47 1014.0
20260508051031 57 354 1.0 3.0 0.00 0.00 0.00 49 1014.0
20260508050532 58 4 0.0 2.0 0.00 0.00 0.00 46 1014.0
20260508050034 58 0 0.0 0.0 0.00 0.00 0.00 46 1014.0
20260508045529 58 13 3.0 5.0 0.00 0.00 0.00 45 1014.0
20260508045031 58 33 3.0 4.0 0.00 0.00 0.00 45 1014.0
20260508044529 58 0 0.0 0.0 0.00 0.00 0.00 45 1014.0
20260508044029 59 23 0.0 0.0 0.00 0.00 0.00 44 1014.0
20260508043529 59 45 4.0 4.0 0.00 0.00 0.00 44 1014.0
20260508043032 59 32 4.0 4.0 0.00 0.00 0.00 45 1014.0
20260508042529 59 43 4.0 4.0 0.00 0.00 0.00 44 1014.0
20260508042030 59 0 0.0 0.0 0.00 0.00 0.00 44 1014.0
20260508041532 60 29 4.0 4.0 0.00 0.00 0.00 44 1014.0
20260508041032 60 16 4.0 4.0 0.00 0.00 0.00 44 1014.0
20260508040531 60 27 5.0 5.0 0.00 0.00 0.00 43 1014.0
20260508040031 60 40 4.0 5.0 0.00 0.00 0.00 44 1014.0
20260508035532 60 35 4.0 5.0 0.00 0.00 0.00 44 1014.0
20260508035030 61 44 4.0 4.0 0.00 0.00 0.00 43 1014.0
20260508034530 61 53 3.0 4.0 0.00 0.00 0.00 44 1014.0
20260508034030 62 58 3.0 4.0 0.00 0.00 0.00 42 1014.0
20260508033531 62 54 2.0 3.0 0.00 0.00 0.00 42 1013.0
20260508033029 62 44 1.0 2.0 0.00 0.00 0.00 40 1013.0
20260508032532 63 31 4.0 4.0 0.00 0.00 0.00 38 1013.0
20260508032032 63 0 0.0 0.0 0.00 0.00 0.00 37 1013.0
20260508031531 63 0 0.0 0.0 0.00 0.00 0.00 38 1013.0
20260508031030 63 0 0.0 0.0 0.00 0.00 0.00 37 1013.0
20260508030530 63 0 0.0 0.0 0.00 0.00 0.00 35 1013.0
20260508030031 63 0 0.0 0.0 0.00 0.00 0.00 38 1013.0
20260508025530 64 0 0.0 0.0 0.00 0.00 0.00 36 1013.0
20260508025030 64 0 0.0 0.0 0.00 0.00 0.00 35 1013.0
20260508024530 65 0 0.0 0.0 0.00 0.00 0.00 34 1013.0
20260508024030 65 0 0.0 0.0 0.00 0.00 0.00 35 1013.0
20260508023529 66 332 6.0 9.0 0.00 0.00 0.00 34 1013.0
20260508023031 67 337 5.0 5.0 0.00 0.00 0.00 33 1013.0
20260508022529 69 354 7.0 8.0 0.00 0.00 0.00 32 1013.0
20260508022030 70 4 7.0 7.0 0.00 0.00 0.00 31 1013.0
20260508021531 72 357 7.0 8.0 0.00 0.00 0.00 28 1013.0
20260508021030 72 0 0.0 0.0 0.00 0.00 0.00 28 1013.0
20260508020529 73 342 0.0 1.0 0.00 0.00 0.00 27 1013.0
20260508020033 73 2 0.0 1.0 0.00 0.00 0.00 27 1013.0
20260508015530 73 4 1.0 4.0 0.00 0.00 0.00 25 1013.0
20260508015030 74 4 4.0 5.0 0.00 0.00 0.00 23 1013.0
20260508014530 75 349 6.0 7.0 0.00 0.00 0.00 22 1013.0
20260508014030 75 315 2.0 4.0 0.00 0.00 0.00 20 1013.0
20260508013529 74 296 2.0 3.0 0.00 0.00 0.00 20 1013.0
20260508013030 74 323 3.0 5.0 0.00 0.00 0.00 20 1013.0
20260508012530 73 347 3.0 5.0 0.00 0.00 0.00 22 1013.0
20260508012029 73 3 4.0 5.0 0.00 0.00 0.00 23 1013.0
20260508011532 72 14 5.0 6.0 0.00 0.00 0.00 23 1013.0
20260508011030 72 17 5.0 6.0 0.00 0.00 0.00 24 1013.0
20260508010530 72 351 4.0 5.0 0.00 0.00 0.00 24 1013.0
20260508010029 72 336 6.0 7.0 0.00 0.00 0.00 24 1013.0
20260508005530 72 335 4.0 6.0 0.00 0.00 0.00 22 1013.0
20260508005030 72 351 5.0 6.0 0.00 0.00 0.00 24 1013.0
20260508004532 72 24 7.0 9.0 0.00 0.00 0.00 23 1013.0
20260508004031 72 1 6.0 7.0 0.00 0.00 0.00 23 1013.0
20260508003531 73 343 8.0 9.0 0.00 0.00 0.00 23 1013.0
20260508003029 73 329 4.0 4.0 0.00 0.00 0.00 22 1013.0
20260508002529 73 350 0.0 0.0 0.00 0.00 0.00 21 1013.0
20260508002032 73 353 6.0 9.0 0.00 0.00 0.00 23 1013.0
20260508001531 73 342 5.0 9.0 0.00 0.00 0.00 23 1013.0
20260508001030 73 324 5.0 9.0 0.00 0.00 0.00 23 1013.0
20260508000531 73 335 4.0 6.0 0.00 0.00 0.00 22 1013.0
20260508000029 74 322 6.0 8.0 0.00 0.00 0.00 21 1013.0
20260507235530 74 320 4.0 8.0 0.00 0.00 0.00 22 1013.0
20260507235031 74 338 11.0 12.0 0.00 0.00 0.00 21 1013.0
20260507234530 74 348 5.0 8.0 0.00 0.00 0.00 21 1013.0
20260507234029 74 303 6.0 10.0 0.00 0.00 0.00 22 1014.0
20260507233529 74 20 11.0 15.0 0.00 0.00 0.00 21 1014.0
20260507233031 74 296 4.0 13.0 0.00 0.00 0.00 22 1014.0
20260507232530 74 310 7.0 13.0 0.00 0.00 0.00 21 1014.0
20260507232029 74 295 7.0 11.0 0.00 0.00 0.00 22 1014.0
20260507231531 74 199 2.0 6.0 0.00 0.00 0.00 22 1014.0
20260507231029 74 285 3.0 7.0 0.00 0.00 0.00 22 1014.0
20260507230529 74 335 7.0 10.0 0.00 0.00 0.00 21 1014.0
20260507230029 74 326 6.0 9.0 0.00 0.00 0.00 21 1014.0
20260507225530 74 302 13.0 20.0 0.00 0.00 0.00 21 1014.0
20260507225029 74 286 6.0 12.0 0.00 0.00 0.00 21 1014.0
20260507224531 74 22 9.0 20.0 0.00 0.00 0.00 22 1014.0
20260507224029 74 41 4.0 7.0 0.00 0.00 0.00 22 1014.0
20260507223529 74 299 9.0 18.0 0.00 0.00 0.00 22 1014.0
20260507223030 74 288 11.0 18.0 0.00 0.00 0.00 22 1014.0
20260507222529 74 325 8.0 12.0 0.00 0.00 0.00 21 1014.0
20260507222030 74 333 5.0 8.0 0.00 0.00 0.00 22 1014.0
20260507221529 74 324 5.0 6.0 0.00 0.00 0.00 22 1014.0
20260507221030 74 293 3.0 6.0 0.00 0.00 0.00 21 1014.0
20260507220529 74 237 1.0 5.0 0.00 0.00 0.00 22 1014.0
20260507220032 74 315 7.0 14.0 0.00 0.00 0.00 22 1014.0
20260507215530 75 318 7.0 9.0 0.00 0.00 0.00 20 1014.0
20260507215029 75 268 4.0 4.0 0.00 0.00 0.00 21 1014.0
20260507214529 75 210 1.0 3.0 0.00 0.00 0.00 22 1014.0
20260507214031 75 44 0.0 2.0 0.00 0.00 0.00 19 1014.0
20260507213531 75 267 2.0 4.0 0.00 0.00 0.00 22 1015.0
20260507213029 75 127 3.0 9.0 0.00 0.00 0.00 23 1015.0
20260507212530 74 133 3.0 8.0 0.00 0.00 0.00 24 1015.0
20260507212031 74 160 12.0 14.0 0.00 0.00 0.00 21 1015.0
20260507211529 74 289 3.0 8.0 0.00 0.00 0.00 21 1015.0
20260507211029 74 169 0.0 0.0 0.00 0.00 0.00 24 1015.0
20260507210530 73 307 5.0 10.0 0.00 0.00 0.00 21 1015.0
20260507210032 73 236 4.0 5.0 0.00 0.00 0.00 23 1015.0
20260507205531 72 45 4.0 5.0 0.00 0.00 0.00 21 1015.0
20260507205032 72 336 3.0 5.0 0.00 0.00 0.00 21 1015.0
20260507204530 71 222 4.0 4.0 0.00 0.00 0.00 23 1015.0
20260507204031 71 136 5.0 7.0 0.00 0.00 0.00 22 1015.0
20260507203532 71 114 6.0 8.0 0.00 0.00 0.00 23 1015.0
20260507203031 71 123 9.0 14.0 0.00 0.00 0.00 22 1016.0
20260507202532 71 7 3.0 8.0 0.00 0.00 0.00 23 1016.0
20260507202031 71 225 0.0 1.0 0.00 0.00 0.00 22 1016.0
20260507201530 71 62 5.0 7.0 0.00 0.00 0.00 23 1016.0
20260507201030 71 168 6.0 10.0 0.00 0.00 0.00 22 1016.0
20260507200530 70 208 1.0 3.0 0.00 0.00 0.00 26 1016.0
20260507200031 69 337 3.0 4.0 0.00 0.00 0.00 23 1016.0
20260507195531 69 152 7.0 9.0 0.00 0.00 0.00 23 1016.0
20260507195031 69 153 9.0 14.0 0.00 0.00 0.00 23 1016.0
20260507194533 69 54 6.0 9.0 0.00 0.00 0.00 23 1016.0
20260507194032 69 153 7.0 12.0 0.00 0.00 0.00 23 1016.0
20260507193532 68 163 8.0 11.0 0.00 0.00 0.00 23 1016.0
20260507193029 68 87 8.0 13.0 0.00 0.00 0.00 23 1016.0
20260507192530 68 91 6.0 11.0 0.00 0.00 0.00 24 1016.0
20260507192029 67 166 8.0 10.0 0.00 0.00 0.00 23 1016.0
20260507191533 67 41 9.0 11.0 0.00 0.00 0.00 23 1017.0
20260507191029 67 49 5.0 7.0 0.00 0.00 0.00 23 1017.0
20260507190531 68 148 9.0 11.0 0.00 0.00 0.00 24 1017.0
20260507190030 67 40 5.0 8.0 0.00 0.00 0.00 22 1017.0
20260507185530 67 317 3.0 5.0 0.00 0.00 0.00 24 1017.0
20260507185029 66 176 4.0 5.0 0.00 0.00 0.00 24 1017.0
20260507184531 66 96 6.0 13.0 0.00 0.00 0.00 24 1017.0
20260507184031 66 134 7.0 10.0 0.00 0.00 0.00 24 1017.0
20260507183531 65 137 7.0 11.0 0.00 0.00 0.00 25 1017.0
20260507183031 65 147 9.0 13.0 0.00 0.00 0.00 26 1017.0
20260507182530 65 154 4.0 9.0 0.00 0.00 0.00 25 1017.0
20260507182030 65 165 8.0 11.0 0.00 0.00 0.00 25 1017.0
20260507181532 64 158 4.0 8.0 0.00 0.00 0.00 25 1017.0
20260507181033 65 147 9.0 13.0 0.00 0.00 0.00 25 1017.0
20260507180533 65 163 11.0 14.0 0.00 0.00 0.00 24 1017.0
20260507180033 65 98 2.0 4.0 0.00 0.00 0.00 26 1017.0
20260507175534 64 147 11.0 15.0 0.00 0.00 0.00 24 1017.0
20260507175031 64 161 8.0 13.0 0.00 0.00 0.00 24 1017.0
20260507174531 64 100 6.0 8.0 0.00 0.00 0.00 24 1018.0
20260507174030 64 161 9.0 14.0 0.00 0.00 0.00 24 1018.0
20260507173533 64 135 9.0 11.0 0.00 0.00 0.00 24 1018.0
20260507173034 63 150 6.0 10.0 0.00 0.00 0.00 23 1018.0
20260507172532 62 159 7.0 9.0 0.00 0.00 0.00 23 1018.0
20260507172031 62 169 5.0 9.0 0.00 0.00 0.00 25 1018.0
20260507171532 61 150 7.0 10.0 0.00 0.00 0.00 24 1018.0
20260507171031 61 133 7.0 9.0 0.00 0.00 0.00 24 1018.0
20260507170532 61 93 5.0 6.0 0.00 0.00 0.00 25 1018.0
20260507170029 61 111 4.0 6.0 0.00 0.00 0.00 28 1018.0
20260507165529 61 143 6.0 12.0 0.00 0.00 0.00 29 1018.0
20260507165029 61 96 6.0 13.0 0.00 0.00 0.00 27 1018.0
20260507164532 60 117 4.0 8.0 0.00 0.00 0.00 28 1018.0
20260507164032 60 98 6.0 9.0 0.00 0.00 0.00 29 1018.0
20260507163534 60 74 5.0 7.0 0.00 0.00 0.00 29 1018.0
20260507163031 60 122 5.0 6.0 0.00 0.00 0.00 29 1018.0
20260507162531 59 83 4.0 8.0 0.00 0.00 0.00 30 1018.0
20260507162032 59 139 8.0 12.0 0.00 0.00 0.00 29 1018.0
20260507161531 59 144 7.0 9.0 0.00 0.00 0.00 30 1018.0
20260507161032 58 113 5.0 7.0 0.00 0.00 0.00 33 1018.0
20260507160533 58 125 7.0 9.0 0.00 0.00 0.00 31 1018.0
20260507160030 58 105 5.0 7.0 0.00 0.00 0.00 34 1018.0
20260507155533 57 100 6.0 8.0 0.00 0.00 0.00 34 1018.0
20260507155033 57 127 4.0 6.0 0.00 0.00 0.00 34 1019.0
20260507154533 57 82 7.0 7.0 0.00 0.00 0.00 33 1019.0
20260507154031 57 79 5.0 7.0 0.00 0.00 0.00 33 1019.0
20260507153532 56 110 4.0 8.0 0.00 0.00 0.00 36 1019.0
20260507153032 56 97 6.0 8.0 0.00 0.00 0.00 36 1019.0
20260507152531 55 53 4.0 5.0 0.00 0.00 0.00 36 1019.0
20260507152033 55 132 4.0 5.0 0.00 0.00 0.00 38 1019.0
20260507151531 55 77 4.0 6.0 0.00 0.00 0.00 38 1019.0
20260507151030 55 0 0.0 0.0 0.00 0.00 0.00 39 1019.0
20260507150533 55 120 3.0 5.0 0.00 0.00 0.00 37 1019.0
20260507150033 55 102 0.0 0.0 0.00 0.00 0.00 39 1019.0
20260507145533 54 101 0.0 0.0 0.00 0.00 0.00 41 1019.0
20260507145032 53 142 3.0 5.0 0.00 0.00 0.00 38 1019.0
20260507144534 54 124 8.0 10.0 0.00 0.00 0.00 38 1019.0
20260507144033 53 129 4.0 5.0 0.00 0.00 0.00 38 1019.0
20260507143529 53 103 4.0 5.0 0.00 0.00 0.00 38 1019.0
20260507143031 53 127 5.0 6.0 0.00 0.00 0.00 38 1019.0
20260507142532 53 84 5.0 7.0 0.00 0.00 0.00 40 1019.0
20260507142031 53 104 4.0 5.0 0.00 0.00 0.00 41 1019.0
20260507141533 53 127 8.0 12.0 0.00 0.00 0.00 41 1019.0
20260507141033 52 122 7.0 9.0 0.00 0.00 0.00 44 1019.0
20260507140533 51 97 8.0 10.0 0.00 0.00 0.00 45 1019.0
20260507140033 50 114 6.0 7.0 0.00 0.00 0.00 46 1019.0
20260507135533 49 126 4.0 5.0 0.00 0.00 0.00 49 1019.0
20260507135031 48 72 2.0 5.0 0.00 0.00 0.00 49 1019.0
20260507134531 48 111 1.0 4.0 0.00 0.00 0.00 49 1019.0
20260507134032 48 114 4.0 4.0 0.00 0.00 0.00 52 1019.0
20260507133532 47 114 6.0 6.0 0.00 0.00 0.00 53 1019.0
20260507133031 48 114 5.0 5.0 0.00 0.00 0.00 55 1019.0
20260507132532 48 84 4.0 4.0 0.00 0.00 0.00 54 1019.0
20260507132031 48 116 4.0 4.0 0.00 0.00 0.00 49 1019.0
20260507131531 48 88 2.0 4.0 0.00 0.00 0.00 51 1019.0
20260507131033 48 107 3.0 4.0 0.00 0.00 0.00 47 1019.0
20260507130533 48 0 0.0 0.0 0.00 0.00 0.00 49 1019.0
20260507130029 47 0 0.0 0.0 0.00 0.00 0.00 49 1019.0
20260507125530 47 82 3.0 4.0 0.00 0.00 0.00 50 1019.0
20260507125033 47 6 2.0 3.0 0.00 0.00 0.00 50 1019.0
20260507124533 46 57 3.0 3.0 0.00 0.00 0.00 55 1019.0
20260507124031 46 90 5.0 6.0 0.00 0.00 0.00 53 1019.0
20260507123531 46 37 4.0 4.0 0.00 0.00 0.00 53 1019.0
20260507123031 45 77 7.0 8.0 0.00 0.00 0.00 55 1019.0
20260507122531 44 99 4.0 5.0 0.00 0.00 0.00 58 1018.0
20260507122035 44 124 6.0 7.0 0.00 0.00 0.00 59 1018.0
20260507121532 43 107 7.0 9.0 0.00 0.00 0.00 61 1018.0
20260507121029 43 97 6.0 7.0 0.00 0.00 0.00 62 1018.0
20260507120531 42 73 8.0 8.0 0.00 0.00 0.00 63 1018.0
20260507120034 42 62 5.0 5.0 0.00 0.00 0.00 63 1018.0
20260507115532 42 41 3.0 4.0 0.00 0.00 0.00 63 1018.0
20260507115032 42 58 5.0 6.0 0.00 0.00 0.00 63 1018.0
20260507114533 42 85 4.0 4.0 0.00 0.00 0.00 63 1018.0
20260507114032 43 151 0.0 0.0 0.00 0.00 0.00 63 1018.0
20260507113531 44 0 0.0 0.0 0.00 0.00 0.00 62 1018.0
20260507113033 44 105 4.0 4.0 0.00 0.00 0.00 62 1018.0
20260507112530 45 107 4.0 4.0 0.00 0.00 0.00 60 1018.0
20260507112032 45 127 5.0 7.0 0.00 0.00 0.00 60 1018.0
20260507111531 45 118 5.0 6.0 0.00 0.00 0.00 57 1018.0
20260507111030 46 112 5.0 5.0 0.00 0.00 0.00 58 1018.0
20260507110534 46 115 5.0 5.0 0.00 0.00 0.00 57 1018.0
20260507110031 47 87 4.0 4.0 0.00 0.00 0.00 55 1018.0
20260507105531 47 89 5.0 5.0 0.00 0.00 0.00 56 1018.0
20260507105029 46 73 6.0 7.0 0.00 0.00 0.00 53 1018.0
20260507104530 46 61 6.0 8.0 0.00 0.00 0.00 53 1018.0
20260507104030 45 68 7.0 7.0 0.00 0.00 0.00 54 1019.0
20260507103530 45 75 7.0 8.0 0.00 0.00 0.00 55 1019.0
20260507103032 44 78 5.0 7.0 0.00 0.00 0.00 59 1019.0
20260507102531 44 77 4.0 4.0 0.00 0.00 0.00 60 1019.0
20260507102032 43 85 4.0 4.0 0.00 0.00 0.00 62 1019.0
20260507101530 43 90 5.0 5.0 0.00 0.00 0.00 62 1019.0
20260507101030 43 67 2.0 4.0 0.00 0.00 0.00 62 1019.0
20260507100531 43 66 3.0 7.0 0.00 0.00 0.00 62 1019.0
20260507100031 43 70 1.0 4.0 0.00 0.00 0.00 62 1019.0
20260507095531 43 103 3.0 4.0 0.00 0.00 0.00 61 1019.0
20260507095031 44 0 0.0 0.0 0.00 0.00 0.00 60 1019.0
20260507094531 44 0 0.0 0.0 0.00 0.00 0.00 58 1019.0
20260507094030 44 0 0.0 0.0 0.00 0.00 0.00 58 1019.0
20260507093531 45 124 4.0 4.0 0.00 0.00 0.00 57 1019.0
20260507093030 45 122 4.0 5.0 0.00 0.00 0.00 56 1019.0
20260507092531 45 114 5.0 6.0 0.00 0.00 0.00 56 1019.0
20260507092032 45 99 6.0 7.0 0.00 0.00 0.00 58 1019.0
20260507091529 46 111 5.0 5.0 0.00 0.00 0.00 56 1019.0
20260507091030 46 96 5.0 5.0 0.00 0.00 0.00 57 1019.0
20260507090533 46 95 5.0 5.0 0.00 0.00 0.00 55 1019.0
20260507090031 46 104 5.0 6.0 0.00 0.00 0.00 52 1019.0
20260507085529 47 112 4.0 4.0 0.00 0.00 0.00 52 1019.0